Home   Weather   Tehran   Past weeks

Flag for Iran Past Weather in Tehran, Iran — Yesterday and Last 2 Weeks

61 °F

Scattered clouds.

Feels Like: 61 °F
Forecast: 51 / 67 °F
Wind: 9 mph from Southeast

Location: Tehran-Mehrabad

Current Time: Oct 22, 2016 at 10:34:00 AM

Latest Report: Oct 22, 2016 at 10:00 AM

Visibility: N/A

Pressure: 30.27 "Hg (26.33 "Hg at 1179m altitude)

Humidity: 36%

Dew Point: 34 °F

Location of TehranLocation

Past Weather in Tehran — Graph


Tehran Temperature Yesterday

Maximum temperature yesterday: 72 °F (at 2:30 PM)
Minimum temperature yesterday: 55 °F (at 11:00 PM)
Average temperature yesterday: 63 °F

High & Low Weather Summary for the Past Weeks

High86 °F (Oct 9, 3:00 PM)63% (Oct 16, 6:30 AM)30.27 "Hg (Oct 16, 6:30 AM)
Low52 °F (Oct 18, 3:00 AM)7% (Oct 17, 3:30 PM)29.89 "Hg (Oct 17, 8:00 AM)
Average69 °F25%30.08 "Hg
* Reported Oct 7 10:30 AM — Oct 22 9:30 AM, Tehran, Weather by CustomWeather, © 2016

Note: Actual official high and low records may vary slightly from our data, if they occured in-between our weather recording intervals... More about our weather records


Tehran Weather History for the Previous 24 Hours

Scroll right to see more
Time TempWeatherWind HumidityBarometerVisibility
9:30 AM
Sat, Oct 22
61 °FScattered clouds.7 mph36%30.27 "HgN/A
9:00 AM59 °FScattered clouds.7 mph39%30.27 "HgN/A
8:30 AM57 °FScattered clouds.5 mph41%30.27 "HgN/A
8:00 AM57 °FScattered clouds.5 mph44%30.27 "HgN/A
7:30 AM57 °FPassing clouds.5 mph44%30.24 "HgN/A
7:00 AM55 °FSunny.5 mph47%30.24 "Hg10 mi
6:30 AM54 °FClear.No wind54%30.24 "Hg10 mi
6:00 AM54 °FClear.No wind54%30.21 "Hg10 mi
5:30 AM54 °FClear.No wind54%30.21 "Hg10 mi
5:00 AM54 °FClear.5 mph54%30.21 "Hg10 mi
4:30 AM54 °FClear.No wind58%30.21 "Hg10 mi
3:30 AM54 °FClear.No wind58%30.18 "Hg10 mi
3:00 AM54 °FClear.No wind58%30.18 "Hg10 mi
2:30 AM54 °FClear.5 mph54%30.18 "Hg10 mi
2:00 AM54 °FClear.7 mph58%30.18 "Hg10 mi
1:30 AM54 °FClear.5 mph58%30.18 "Hg10 mi
1:00 AM54 °FClear.7 mph58%30.18 "Hg10 mi
12:30 AM54 °FClear.7 mph58%30.18 "Hg10 mi
12:00 AM54 °FClear.7 mph58%30.18 "Hg10 mi
11:30 PM
Fri, Oct 21
55 °FClear.7 mph55%30.18 "Hg10 mi
11:00 PM55 °FClear.7 mph55%30.18 "Hg10 mi
10:30 PM57 °FClear.7 mph51%30.15 "Hg10 mi
10:00 PM57 °FClear.9 mph51%30.15 "Hg10 mi
9:30 PM57 °FClear.12 mph51%30.15 "Hg10 mi
9:00 PM59 °FClear.9 mph48%30.15 "Hg10 mi
8:30 PM61 °FClear.5 mph45%30.15 "Hg10 mi
8:00 PM61 °FClear.5 mph42%30.15 "Hg10 mi
7:30 PM63 °FClear.7 mph39%30.12 "Hg10 mi
7:00 PM64 °FClear.12 mph34%30.12 "Hg10 mi
6:30 PM64 °FClear.14 mph34%30.09 "Hg10 mi
6:00 PM66 °FClear.16 mph32%30.09 "Hg10 mi
5:30 PM66 °FSunny.18 mph32%30.09 "Hg10 mi
5:00 PM68 °FSunny.16 mph30%30.09 "Hg10 mi
4:30 PM70 °FSunny.14 mph29%30.09 "Hg10 mi
4:00 PM70 °FPassing clouds.14 mph29%30.09 "HgN/A
3:30 PM72 °FPassing clouds.9 mph27%30.07 "HgN/A
3:00 PM72 °FPassing clouds.12 mph27%30.07 "HgN/A
2:30 PM72 °FPassing clouds.12 mph27%30.09 "HgN/A
2:00 PM70 °FPassing clouds.12 mph29%30.09 "HgN/A
1:30 PM70 °FPassing clouds.9 mph27%30.09 "HgN/A
1:00 PM70 °FPassing clouds.9 mph27%30.09 "HgN/A
12:30 PM68 °FPassing clouds.7 mph28%30.09 "HgN/A
12:00 PM68 °FPassing clouds.9 mph28%30.12 "HgN/A
11:30 AM68 °FPassing clouds.7 mph28%30.12 "HgN/A
11:00 AM66 °FPassing clouds.7 mph30%30.12 "HgN/A
10:30 AM66 °FPassing clouds.7 mph30%30.12 "HgN/A
10:00 AM66 °FSunny.5 mph30%30.12 "Hg10 mi
Weather by CustomWeather, © 2016

See weather overviewHow to use our weather pages